Date String (YYYY-MM-DD hh:mm:ss) UTC,Instrument flags,absolute air pressure of the measurement (hPa),sample flow rate (lpm),inlet stack bypass flow (lpm),air temperature of the measurement (°C),ambient temperature measured by the external sensor (°C),aerosol sample conditioner tube jacket temperature (°C),OPC LED temperature (°C),internal box temperature (°C),relative humidity of the measurement (%),span deviation,mass concentration of particles derived from Lorenz-Mie calculation of OPC scattering (μg/m³),mass concentration of particles derived from Lorenz-Mie calculation of OPC scattering (μg/m³),mass concentration of particles derived from Lorenz-Mie calculation of OPC scattering (μg/m³)
DateTimeUTC,F1_M11,P_M11,Q1_M11,Q2_M11,T1_M11,T2_M11,T3_M11,T4_M11,T5_M11,U1_M11,ZSPAN_M11,X0_M11,X2_M11,X1_M11
2023-07-30 14:00:00,SystemResetWarning,0836.4,4.99,000.00,030.8,027.9,000.0,038.6,031.4,34.8,0000.0,0016.25,0006.37,0004.90
2023-07-30 14:01:00,SystemResetWarning,0836.4,5.02,000.00,030.9,028.0,000.0,038.7,031.4,34.3,0000.0,0016.84,0006.41,0004.90
2023-07-30 14:02:00,SystemResetWarning,0836.4,4.98,000.00,030.9,028.2,000.0,038.7,031.5,34.5,0000.0,0017.89,0006.40,0004.90
2023-07-30 14:03:00,SystemResetWarning,0836.4,5.00,000.00,031.0,028.3,000.0,038.8,031.5,34.3,0000.0,0018.15,0006.36,0004.89
2023-07-30 14:04:00,SystemResetWarning,0836.4,5.00,000.00,031.0,028.1,000.0,038.8,031.6,34.1,0000.0,0018.38,0006.33,0004.89
2023-07-30 14:05:00,SystemResetWarning,0836.4,5.00,000.00,031.0,026.6,000.0,038.7,031.3,33.7,0000.0,0017.96,0006.35,0004.90
2023-07-30 14:06:00,SystemResetWarning,0836.4,5.00,000.00,030.9,025.6,000.0,038.7,031.1,33.7,0000.0,0017.37,0006.40,0004.92
2023-07-30 14:07:00,SystemResetWarning,0836.4,5.00,000.00,030.9,025.6,000.0,038.7,031.0,34.2,0000.0,0016.66,0006.37,0004.92
2023-07-30 14:08:00,SystemResetWarning,0836.4,5.01,000.00,030.7,026.0,000.0,038.7,030.9,34.6,0000.0,0016.06,0006.36,0004.91
2023-07-30 14:09:00,SystemResetWarning,0836.4,4.98,000.00,030.7,026.4,000.0,038.8,031.0,35.2,0000.0,0016.44,0006.38,0004.92
2023-07-30 14:10:00,SystemResetWarning,0836.4,5.02,000.00,030.8,026.7,000.0,038.8,031.2,35.2,0000.0,0017.74,0006.42,0004.94
2023-07-30 14:11:00,SystemResetWarning,0836.4,5.00,000.00,031.1,027.1,000.0,038.8,031.4,34.9,0000.0,0018.48,0006.44,0004.96
2023-07-30 14:12:00,SystemResetWarning,0836.4,4.99,000.00,031.2,027.4,000.0,038.8,031.5,34.0,0000.0,0017.62,0006.44,0004.98
2023-07-30 14:13:00,SystemResetWarning,0836.4,5.01,000.00,031.4,027.6,000.0,038.9,031.5,34.3,0000.0,0016.38,0006.47,0004.98
2023-07-30 14:14:00,SystemResetWarning,0836.5,5.00,000.00,031.4,027.8,000.0,038.9,031.6,34.7,0000.0,0015.68,0006.51,0004.99
2023-07-30 14:15:00,SystemResetWarning,0836.5,4.99,000.00,031.5,028.0,000.0,039.0,031.6,33.7,0000.0,0016.14,0006.53,0004.98
2023-07-30 14:16:00,SystemResetWarning,0836.4,5.00,000.00,031.5,028.2,000.0,039.1,031.6,33.9,0000.0,0016.69,0006.51,0004.96
2023-07-30 14:17:00,SystemResetWarning,0836.4,5.00,000.00,031.5,028.2,000.0,039.1,031.7,33.5,0000.0,0016.72,0006.49,0004.96
2023-07-30 14:18:00,SystemResetWarning,0836.4,4.98,000.00,031.5,027.1,000.0,039.1,031.6,33.7,0000.0,0016.60,0006.49,0004.96
2023-07-30 14:19:00,SystemResetWarning,0836.4,5.02,000.00,031.5,025.8,000.0,039.0,031.3,34.1,0000.0,0016.34,0006.44,0004.96
2023-07-30 14:20:00,SystemResetWarning,0836.4,5.01,000.00,031.4,025.6,000.0,039.0,031.2,33.7,0000.0,0016.27,0006.42,0004.96
2023-07-30 14:21:00,SystemResetWarning,0836.4,5.00,000.00,031.2,025.9,000.0,039.0,031.0,33.5,0000.0,0015.34,0006.36,0004.93
2023-07-30 14:22:00,SystemResetWarning,0836.3,5.00,000.00,031.1,026.3,000.0,039.1,031.1,33.6,0000.0,0015.43,0006.33,0004.91
2023-07-30 14:23:00,SystemResetWarning,0836.4,4.99,000.00,031.1,026.6,000.0,039.1,031.2,33.4,0000.0,0016.21,0006.34,0004.91
2023-07-30 14:24:00,SystemResetWarning,0836.4,5.00,000.00,031.0,027.0,000.0,039.1,031.2,32.5,0000.0,0016.50,0006.34,0004.92
2023-07-30 14:25:00,SystemResetWarning,0836.4,5.00,000.00,031.0,027.3,000.0,039.1,031.3,32.5,0000.0,0016.87,0006.35,0004.92
2023-07-30 14:26:00,SystemResetWarning,0836.4,5.01,000.00,031.0,027.6,000.0,039.1,031.4,32.8,0000.0,0016.60,0006.40,0004.94
2023-07-30 14:27:00,SystemResetWarning,0836.4,5.00,000.00,031.0,027.8,000.0,039.1,031.4,33.6,0000.0,0015.96,0006.37,0004.94
2023-07-30 14:28:00,SystemResetWarning,0836.4,4.98,000.00,031.0,028.0,000.0,039.2,031.5,35.8,0000.0,0015.74,0006.32,0004.94
2023-07-30 14:29:00,SystemResetWarning,0836.3,5.02,000.00,031.1,027.9,000.0,039.1,031.6,35.7,0000.0,0015.87,0006.31,0004.94
2023-07-30 14:30:00,SystemResetWarning,0836.3,5.00,000.00,031.4,026.6,000.0,039.0,031.6,35.1,0000.0,0016.44,0006.38,0004.93
2023-07-30 14:31:00,SystemResetWarning,0836.4,5.00,000.00,031.7,025.6,000.0,038.9,031.5,34.3,0000.0,0016.46,0006.40,0004.93
2023-07-30 14:32:00,SystemResetWarning,0836.3,4.99,000.00,031.8,025.5,000.0,038.9,031.4,33.6,0000.0,0016.68,0006.37,0004.93
2023-07-30 14:33:00,SystemResetWarning,0836.3,5.01,000.00,031.7,025.9,000.0,039.0,031.2,33.7,0000.0,0016.88,0006.37,0004.94
2023-07-30 14:34:00,SystemResetWarning,0836.3,5.01,000.00,031.7,026.3,000.0,039.1,031.3,33.9,0000.0,0016.68,0006.39,0004.93
2023-07-30 14:35:00,SystemResetWarning,0836.4,5.00,000.00,031.7,026.7,000.0,039.2,031.3,34.5,0000.0,0016.25,0006.37,0004.92
2023-07-30 14:36:00,SystemResetWarning,0836.4,4.99,000.00,031.6,027.0,000.0,039.2,031.4,33.1,0000.0,0015.91,0006.35,0004.90
2023-07-30 14:37:00,SystemResetWarning,0836.4,5.00,000.00,031.6,027.3,000.0,039.3,031.4,32.9,0000.0,0015.89,0006.35,0004.91
2023-07-30 14:38:00,SystemResetWarning,0836.4,5.01,000.00,031.6,027.6,000.0,039.4,031.5,33.0,0000.0,0016.74,0006.36,0004.92
2023-07-30 14:39:00,SystemResetWarning,0836.4,5.00,000.00,031.6,027.8,000.0,039.4,031.6,33.2,0000.0,0017.43,0006.45,0004.93
2023-07-30 14:40:00,SystemResetWarning,0836.4,5.00,000.00,031.6,028.0,000.0,039.4,031.6,33.0,0000.0,0017.34,0006.45,0004.93
2023-07-30 14:41:00,SystemResetWarning,0836.4,4.98,000.00,031.6,028.1,000.0,039.4,031.7,33.8,0000.0,0016.85,0006.43,0004.96
2023-07-30 14:42:00,SystemResetWarning,0836.3,5.00,000.00,031.6,027.1,000.0,039.3,031.6,35.8,0000.0,0016.68,0006.48,0004.97
2023-07-30 14:43:00,SystemResetWarning,0836.2,5.02,000.00,031.8,025.9,000.0,039.2,031.5,35.5,0000.0,0016.26,0006.52,0004.98
2023-07-30 14:44:00,SystemResetWarning,0836.3,4.97,000.00,032.0,025.7,000.0,039.2,031.5,35.4,0000.0,0015.14,0006.51,0004.98
2023-07-30 14:45:00,SystemResetWarning,0836.3,5.03,000.00,032.1,025.9,000.0,039.3,031.4,34.6,0000.0,0014.70,0006.47,0004.98
2023-07-30 14:46:00,SystemResetWarning,0836.3,4.97,000.00,032.2,026.3,000.0,039.3,031.4,34.7,0000.0,0015.26,0006.49,0004.99
2023-07-30 14:47:00,SystemResetWarning,0836.4,5.02,000.00,032.3,026.7,000.0,039.4,031.5,34.7,0000.0,0015.25,0006.51,0004.99
2023-07-30 14:48:00,SystemResetWarning,0836.4,5.00,000.00,032.3,027.0,000.0,039.5,031.6,34.4,0000.0,0015.56,0006.49,0004.98
2023-07-30 14:49:00,SystemResetWarning,0836.4,4.99,000.00,032.3,027.4,000.0,039.6,031.6,34.3,0000.0,0015.44,0006.48,0004.96
2023-07-30 14:50:00,SystemResetWarning,0836.4,5.00,000.00,032.3,027.6,000.0,039.7,031.7,34.1,0000.0,0015.45,0006.46,0004.95
2023-07-30 14:51:00,SystemResetWarning,0836.4,5.01,000.00,032.3,027.9,000.0,039.8,031.8,34.2,0000.0,0015.91,0006.47,0004.95
2023-07-30 14:52:00,SystemResetWarning,0836.4,5.01,000.00,032.3,028.0,000.0,039.8,031.8,34.5,0000.0,0016.31,0006.44,0004.93
2023-07-30 14:53:00,SystemResetWarning,0836.3,4.98,000.00,032.3,027.3,000.0,039.8,031.8,34.7,0000.0,0016.70,0006.41,0004.90
2023-07-30 14:54:00,SystemResetWarning,0836.3,5.00,000.00,032.3,026.0,000.0,039.7,031.6,34.4,0000.0,0016.97,0006.41,0004.89
2023-07-30 14:55:00,SystemResetWarning,0836.2,5.02,000.00,032.2,025.6,000.0,039.6,031.5,34.1,0000.0,0017.47,0006.38,0004.88
2023-07-30 14:56:00,SystemResetWarning,0836.2,4.97,000.00,032.0,025.8,000.0,039.7,031.3,34.9,0000.0,0018.44,0006.42,0004.89
2023-07-30 14:57:00,SystemResetWarning,0836.2,5.02,000.00,032.0,026.2,000.0,039.7,031.3,35.5,0000.0,0018.42,0006.38,0004.87
2023-07-30 14:58:00,SystemResetWarning,0836.2,5.00,000.00,032.1,026.6,000.0,039.7,031.5,35.7,0000.0,0018.99,0006.34,0004.85
2023-07-30 14:59:00,SystemResetWarning,0836.2,5.00,000.00,032.3,027.0,000.0,039.8,031.7,33.9,0000.0,0018.51,0006.34,0004.85
